Weather History for KMTH - December, 2012

Change the Weather History Date:

Monday, December 10, 2012

  Actual Average Record
Temperature  
Mean Temperature 81 °F 73 °F  
Max Temperature 85 °F 78 °F 86 °F (1997)
Min Temperature 77 °F 68 °F 52 °F (2014)
Degree Days  
Heating Degree Days 0 1  
Month to date heating degree days 0 3  
Since 1 July heating degree days 1 4  
Cooling Degree Days 16 8  
Month to date cooling degree days 113 87  
Year to date cooling degree days 5098 4851  
Growing Degree Days 30 (Base 50)    
Moisture  
Dew Point 73 °F    
Average Humidity 78    
Maximum Humidity 85    
Minimum Humidity 70    
Precipitation  
Precipitation 0.01 in 0.05 in 0.46 in (2000)
Month to date precipitation 0.29 0.66  
Year to date precipitation 44.37 44.81  
Snow  
Snow 0.00 in - - ()
Month to date snowfall 0.0  
Since 1 July snowfall 0.0  
Snow Depth 0.00 in    
Sea Level Pressure  
Sea Level Pressure 29.97 in    
Wind  
Wind Speed 6 mph (SE)    
Max Wind Speed 12 mph    
Max Gust Speed 17 mph    
Visibility 10 miles    
Events Rain    
T = Trace of Precipitation, MM = Missing Value Source: NWS Daily Summary

Daily Weather History Graph

Daily Weather History Graph

Search for Another Location

Airport or City:

Trip Planner

Search our weather history database for the weather conditions in past years. The results will help you decide how hot, cold, wet, or windy it might be!

Date:

Astronomy

Dec. 10, 2012 Rise Set
Actual Time 6:58 AM EST 5:36 PM EST
Civil Twilight 6:33 AM EST 6:01 PM EST
Nautical Twilight 6:04 AM EST 6:29 PM EST
Astronomical Twilight 5:37 AM EST 6:57 PM EST
Moon 3:51 AM EST (12/10) 3:15 PM EST (12/10)
Length of Visible Light 11h 27m
Length of Day
10h 38m
Waning Crescent, 10% of the Moon is Illuminated
Dec 10
Waning Crescent
Dec 13
New
Dec 20
First Quarter
Dec 28
Full
Jan 4
Last Quarter

Hourly Weather History & Observations

Time (EST) Temp. Heat Index Dew Point Humidity Pressure Visibility Wind Dir Wind Speed Gust Speed Precip Events Conditions
12:53 AM 78.1 °F - 72.0 °F 81% 30.01 in 10.0 mi ESE 3.5 mph - N/A   Mostly Cloudy
1:42 AM 78.8 °F - 71.6 °F 78% 30.00 in 6.0 mi ESE 4.6 mph - 0.01 in Rain Light Rain
1:53 AM 77.0 °F - 72.0 °F 84% 30.00 in 10.0 mi ESE 4.6 mph - 0.01 in   Mostly Cloudy
2:05 AM 77.0 °F - 71.6 °F 83% 30.00 in 9.0 mi ESE 4.6 mph - N/A   Scattered Clouds
2:53 AM 77.0 °F - 72.0 °F 84% 29.98 in 9.0 mi SE 5.8 mph - N/A   Scattered Clouds
3:53 AM 77.0 °F - 72.0 °F 84% 29.97 in 10.0 mi SE 4.6 mph - N/A   Clear
4:53 AM 77.0 °F - 72.0 °F 84% 29.96 in 9.0 mi SE 4.6 mph - N/A   Scattered Clouds
5:53 AM 78.1 °F - 72.0 °F 81% 29.97 in 10.0 mi Variable 5.8 mph - N/A   Scattered Clouds
6:53 AM 78.1 °F - 72.0 °F 81% 29.99 in 10.0 mi SE 5.8 mph - N/A   Scattered Clouds
7:53 AM 78.1 °F - 73.0 °F 84% 29.99 in 9.0 mi SE 6.9 mph - N/A   Clear
8:53 AM 80.1 °F 84.2 °F 73.0 °F 79% 30.01 in 10.0 mi SE 6.9 mph - N/A   Partly Cloudy
9:53 AM 82.0 °F 87.4 °F 73.0 °F 74% 30.00 in 10.0 mi SE 5.8 mph - N/A   Partly Cloudy
10:53 AM 82.9 °F 88.8 °F 73.0 °F 72% 30.01 in 10.0 mi SSE 6.9 mph - N/A   Partly Cloudy
11:15 AM 82.4 °F 88.2 °F 73.4 °F 74% 30.00 in 10.0 mi SSE 8.1 mph - N/A   Mostly Cloudy
11:53 AM 82.9 °F 88.8 °F 73.0 °F 72% 29.98 in 10.0 mi SSE 6.9 mph - N/A   Clear
12:53 PM 84.0 °F 90.2 °F 73.0 °F 69% 29.95 in 10.0 mi SSE 10.4 mph - N/A   Clear
1:53 PM 84.0 °F 90.2 °F 73.0 °F 69% 29.94 in 10.0 mi SSE 8.1 mph - N/A   Partly Cloudy
2:53 PM 84.0 °F 90.2 °F 73.0 °F 69% 29.93 in 10.0 mi South 6.9 mph - N/A   Clear
3:53 PM 82.9 °F 88.8 °F 73.0 °F 72% 29.92 in 10.0 mi SSE 4.6 mph - N/A   Scattered Clouds
4:53 PM 81.0 °F 85.8 °F 73.0 °F 77% 29.92 in 10.0 mi SSE 5.8 mph - N/A   Clear
5:53 PM 80.1 °F 84.2 °F 73.0 °F 79% 29.93 in 10.0 mi SE 4.6 mph - N/A   Clear
6:53 PM 79.0 °F - 73.0 °F 82% 29.93 in 10.0 mi SE 5.8 mph - N/A   Clear
7:53 PM 79.0 °F - 73.0 °F 82% 29.94 in 10.0 mi ESE 8.1 mph - N/A   Clear
8:53 PM 79.0 °F - 73.0 °F 82% 29.96 in 9.0 mi SE 5.8 mph - N/A   Partly Cloudy
9:53 PM 79.0 °F - 73.0 °F 82% 29.98 in 9.0 mi SE 5.8 mph - N/A   Overcast
10:12 PM 78.8 °F - 73.4 °F 83% 29.98 in 9.0 mi SE 6.9 mph - N/A   Overcast
10:53 PM 79.0 °F - 73.0 °F 82% 29.96 in 9.0 mi SE 8.1 mph - N/A   Mostly Cloudy
11:53 PM 79.0 °F - 73.0 °F 82% 29.98 in 9.0 mi SSE 5.8 mph - N/A   Mostly Cloudy